Weather History for Michigan City, IN

Change the Weather History Date:

Sunday, February 17, 2013

  Actual Average (KVPZ) Record (KVPZ)
Temperature  
Mean Temperature 24 °F 28 °F  
Max Temperature 32 °F 36 °F 52 °F (2008)
Min Temperature 15 °F 20 °F 10 °F (2013)
Degree Days  
Heating Degree Days 42 37  
Month to date heating degree days 664  
Since 1 July heating degree days 4349  
Cooling Degree Days 0 0  
Month to date cooling degree days 0  
Year to date cooling degree days 0  
Moisture  
Dew Point 9 °F    
Average Humidity 54    
Maximum Humidity 79    
Minimum Humidity 30    
Precipitation  
Precipitation 0.00 in 0.05 in 0.36 in (2008)
Month to date precipitation 0.84  
Year to date precipitation 2.59  
Sea Level Pressure  
Sea Level Pressure 30.15 in    
Wind  
Wind Speed 7 mph (SSW)    
Max Wind Speed 10 mph    
Max Gust Speed 16 mph    
Visibility 10 miles    
Events Snow    
T = Trace of Precipitation, MM = Missing Value Source: NWS Daily Summary

Daily Weather History Graph

Daily Weather History Graph

Search for Another Location

Airport:

Trip Planner

Search our weather history database for the weather conditions in past years. The results will help you decide how hot, cold, wet, or windy it might be!

Date:

Astronomy

Feb. 17, 2013 Rise Set
Actual Time 6:39 AM CST 5:23 PM CST
Civil Twilight 6:11 AM CST 5:51 PM CST
Nautical Twilight 5:38 AM CST 6:24 PM CST
Astronomical Twilight 5:06 AM CST 6:56 PM CST
Moon 10:25 AM CST (2/17) 12:25 AM CST (2/17)
Length of Visible Light 11h 40m
Length of Day
10h 43m
Waxing Crescent, 49% of the Moon is Illuminated
Feb 17
Waxing Crescent
Feb 17
First Quarter
Feb 25
Full
Mar 4
Last Quarter
Mar 11
New

Hourly Weather History & Observations

Time (CST) Temp. Windchill Dew Point Humidity Pressure Visibility Wind Dir Wind Speed Gust Speed Precip Events Conditions
12:15 AM 19.4 °F 8.6 °F 12.2 °F 74% 30.14 in 10.0 mi WNW 9.2 mph - N/A Snow Light Snow
12:35 AM 19.4 °F 8.6 °F 12.2 °F 74% 30.14 in 10.0 mi West 9.2 mph - N/A   Overcast
12:55 AM 19.4 °F 9.5 °F 12.2 °F 74% 30.14 in 10.0 mi WNW 8.1 mph 16.1 mph N/A Snow Light Snow
1:15 AM 19.4 °F 9.5 °F 12.2 °F 74% 30.14 in 7.0 mi WNW 8.1 mph - N/A Snow Light Snow
1:35 AM 19.4 °F 8.6 °F 12.2 °F 74% 30.14 in 7.0 mi WNW 9.2 mph - N/A Snow Light Snow
1:55 AM 19.4 °F 10.4 °F 12.2 °F 74% 30.14 in 10.0 mi WNW 6.9 mph - N/A   Overcast
2:15 AM 19.4 °F 9.5 °F 12.2 °F 74% 30.14 in 10.0 mi WNW 8.1 mph - N/A   Overcast
2:35 AM 21.2 °F 12.6 °F 12.2 °F 68% 30.14 in 10.0 mi WNW 6.9 mph - N/A   Overcast
2:55 AM 19.4 °F 10.4 °F 10.4 °F 68% 30.14 in 10.0 mi WNW 6.9 mph - N/A   Overcast
3:15 AM 21.2 °F 12.6 °F 10.4 °F 63% 30.14 in 10.0 mi WNW 6.9 mph - N/A   Overcast
3:35 AM 21.2 °F 12.6 °F 10.4 °F 63% 30.14 in 10.0 mi WNW 6.9 mph - N/A   Overcast
3:55 AM 21.2 °F 12.6 °F 12.2 °F 68% 30.14 in 10.0 mi WNW 6.9 mph - N/A   Overcast
4:15 AM 19.4 °F 11.5 °F 10.4 °F 68% 30.15 in 10.0 mi WNW 5.8 mph - N/A   Overcast
4:35 AM 19.4 °F 11.5 °F 10.4 °F 68% 30.15 in 10.0 mi West 5.8 mph - N/A   Overcast
4:55 AM 19.4 °F 12.8 °F 10.4 °F 68% 30.15 in 10.0 mi West 4.6 mph - N/A   Overcast
5:15 AM 19.4 °F 12.8 °F 10.4 °F 68% 30.16 in 10.0 mi West 4.6 mph - N/A   Overcast
5:55 AM 19.4 °F 10.4 °F 12.2 °F 74% 30.17 in 10.0 mi West 6.9 mph - N/A   Overcast
6:15 AM 19.4 °F 14.3 °F 12.2 °F 74% 30.17 in 10.0 mi West 3.5 mph - N/A   Mostly Cloudy
6:55 AM 15.8 °F 6.1 °F 10.4 °F 79% 30.18 in 10.0 mi SW 6.9 mph - N/A   Mostly Cloudy
7:15 AM 15.8 °F 7.2 °F 10.4 °F 79% 30.19 in 10.0 mi SW 5.8 mph - N/A   Mostly Cloudy
7:35 AM 17.6 °F 9.3 °F 10.4 °F 73% 30.19 in 10.0 mi SW 5.8 mph - N/A   Scattered Clouds
7:55 AM 19.4 °F 11.5 °F 10.4 °F 68% 30.19 in 10.0 mi SW 5.8 mph - N/A   Scattered Clouds
8:15 AM 21.2 °F 16.4 °F 12.2 °F 68% 30.19 in 10.0 mi SW 3.5 mph - N/A   Clear
8:35 AM 23.0 °F 15.8 °F 14.0 °F 68% 30.19 in 10.0 mi SSW 5.8 mph - N/A   Clear
8:55 AM 23.0 °F 17.0 °F 12.2 °F 63% 30.20 in 10.0 mi NW 4.6 mph - N/A   Scattered Clouds
9:15 AM 24.8 °F 17.9 °F 14.0 °F 64% 30.20 in 10.0 mi WSW 5.8 mph - N/A   Mostly Cloudy
9:35 AM 24.8 °F 19.1 °F 12.2 °F 59% 30.20 in 10.0 mi West 4.6 mph - N/A   Scattered Clouds
9:55 AM 26.6 °F 19.1 °F 14.0 °F 59% 30.21 in 10.0 mi West 6.9 mph - N/A   Scattered Clouds
10:15 AM 26.6 °F 22.6 °F 12.2 °F 55% 30.20 in 10.0 mi South 3.5 mph - N/A   Scattered Clouds
10:35 AM 26.6 °F 22.6 °F 10.4 °F 51% 30.21 in 10.0 mi SW 3.5 mph - N/A   Scattered Clouds
10:55 AM 28.4 °F 23.3 °F 8.6 °F 43% 30.20 in 10.0 mi SSW 4.6 mph - N/A   Scattered Clouds
11:15 AM 28.4 °F 23.3 °F 6.8 °F 40% 30.20 in 10.0 mi SSE 4.6 mph - N/A   Clear
11:35 AM 28.4 °F 21.2 °F 5.0 °F 37% 30.19 in 10.0 mi SSE 6.9 mph - N/A   Clear
11:55 AM 28.4 °F 20.4 °F 3.2 °F 34% 30.19 in 10.0 mi SSE 8.1 mph - N/A   Clear
12:15 PM 28.4 °F - 3.2 °F 34% 30.18 in 10.0 mi Calm Calm - N/A   Clear
12:55 PM 30.2 °F 22.6 °F 5.0 °F 34% 30.19 in 10.0 mi SSW 8.1 mph - N/A   Clear
1:15 PM 30.2 °F 24.3 °F 5.0 °F 34% 30.18 in 10.0 mi SSW 5.8 mph 16.1 mph N/A   Clear
1:35 PM 30.2 °F 23.4 °F 5.0 °F 34% 30.17 in 10.0 mi SW 6.9 mph - N/A   Clear
1:55 PM 30.2 °F 21.3 °F 5.0 °F 34% 30.17 in 10.0 mi SSW 10.4 mph - N/A   Clear
2:15 PM 30.2 °F 25.4 °F 3.2 °F 32% 30.16 in 10.0 mi South 4.6 mph - N/A   Clear
2:35 PM 30.2 °F 23.4 °F 3.2 °F 32% 30.16 in 10.0 mi SSW 6.9 mph - N/A   Clear
2:55 PM 32.0 °F 24.2 °F 3.2 °F 30% 30.16 in 10.0 mi South 9.2 mph - N/A   Clear
3:15 PM 32.0 °F 27.5 °F 3.2 °F 30% 30.15 in 10.0 mi South 4.6 mph - N/A   Clear
3:35 PM 30.2 °F 23.4 °F 5.0 °F 34% 30.15 in 10.0 mi South 6.9 mph - N/A   Clear
3:55 PM 30.2 °F 22.6 °F 5.0 °F 34% 30.14 in 10.0 mi South 8.1 mph - N/A   Clear
4:15 PM 30.2 °F 23.4 °F 5.0 °F 34% 30.14 in 10.0 mi SSW 6.9 mph - N/A   Clear
4:35 PM 28.4 °F 20.4 °F 5.0 °F 37% 30.14 in 10.0 mi SSW 8.1 mph - N/A   Clear
4:55 PM 28.4 °F 20.4 °F 5.0 °F 37% 30.14 in 10.0 mi South 8.1 mph - N/A   Clear
5:15 PM 28.4 °F 22.2 °F 5.0 °F 37% 30.13 in 10.0 mi South 5.8 mph - N/A   Clear
5:35 PM 26.6 °F 21.2 °F 6.8 °F 43% 30.12 in 10.0 mi SSE 4.6 mph - N/A   Clear
5:55 PM 26.6 °F 21.2 °F 8.6 °F 47% 30.13 in 10.0 mi South 4.6 mph - N/A   Clear
6:15 PM 26.6 °F 21.2 °F 8.6 °F 47% 30.13 in 10.0 mi South 4.6 mph - N/A   Clear
6:35 PM 26.6 °F 22.6 °F 8.6 °F 47% 30.13 in 10.0 mi South 3.5 mph - N/A   Clear
6:55 PM 26.6 °F 22.6 °F 8.6 °F 47% 30.13 in 10.0 mi SSE 3.5 mph - N/A   Clear
7:15 PM 26.6 °F - 10.4 °F 51% 30.13 in 10.0 mi Calm Calm - N/A   Clear
7:35 PM 26.6 °F 22.6 °F 10.4 °F 51% 30.12 in 10.0 mi SSE 3.5 mph - N/A   Clear
7:55 PM 26.6 °F - 10.4 °F 51% 30.12 in 10.0 mi Calm Calm - N/A   Clear
8:15 PM 26.6 °F 22.6 °F 10.4 °F 51% 30.12 in 10.0 mi SSE 3.5 mph - N/A   Clear
8:35 PM 26.6 °F 22.6 °F 10.4 °F 51% 30.12 in 10.0 mi SSE 3.5 mph - N/A   Clear
8:55 PM 26.6 °F 22.6 °F 10.4 °F 51% 30.10 in 10.0 mi SSE 3.5 mph - N/A   Clear
9:15 PM 26.6 °F 20.0 °F 8.6 °F 47% 30.10 in 10.0 mi SSE 5.8 mph - N/A   Clear
9:35 PM 26.6 °F 20.0 °F 10.4 °F 51% 30.09 in 10.0 mi South 5.8 mph - N/A   Clear
9:55 PM 26.6 °F 21.2 °F 10.4 °F 51% 30.09 in 10.0 mi SSE 4.6 mph - N/A   Clear
10:15 PM 26.6 °F 22.6 °F 10.4 °F 51% 30.09 in 10.0 mi SSE 3.5 mph - N/A   Clear
10:35 PM 28.4 °F 21.2 °F 10.4 °F 47% 30.09 in 10.0 mi South 6.9 mph - N/A   Clear
10:55 PM 26.6 °F 19.1 °F 12.2 °F 55% 30.09 in 10.0 mi SSE 6.9 mph - N/A   Clear
11:15 PM 26.6 °F 20.0 °F 12.2 °F 55% 30.07 in 10.0 mi SSE 5.8 mph - N/A   Clear
11:35 PM 26.6 °F 20.0 °F 12.2 °F 55% 30.07 in 10.0 mi SSE 5.8 mph - N/A   Clear
11:55 PM 26.6 °F 19.1 °F 10.4 °F 51% 30.07 in 10.0 mi SE 6.9 mph - N/A   Clear